TimeEDT,TemperatureF,Dew PointF,Humidity,Sea Level PressureIn,VisibilityMPH,Wind Direction,Wind SpeedMPH,Gust SpeedMPH,PrecipitationIn,Events,Conditions,WindDirDegrees,DateUTC
12:53 AM,57.9,46.9,67,30.10,10.0,SE,4.6,-,N/A,,Clear,140,2013-05-28 04:53:00
1:53 AM,57.9,48.0,70,30.07,9.0,East,4.6,-,0.00,Rain,Light Rain,90,2013-05-28 05:53:00
2:53 AM,55.9,50.0,80,30.08,8.0,Variable,3.5,-,0.02,Rain,Light Rain,0,2013-05-28 06:53:00
3:53 AM,55.0,51.1,86,30.05,10.0,East,6.9,-,0.01,,Overcast,100,2013-05-28 07:53:00
4:53 AM,55.0,52.0,89,30.05,10.0,ESE,6.9,-,N/A,,Overcast,120,2013-05-28 08:53:00
5:53 AM,55.9,54.0,93,30.08,6.0,SE,3.5,-,0.06,Rain,Light Rain,130,2013-05-28 09:53:00
6:53 AM,55.9,54.0,93,30.07,5.0,SSE,10.4,-,0.06,Rain,Light Rain,160,2013-05-28 10:53:00
7:53 AM,57.9,55.9,93,30.07,10.0,South,9.2,-,0.00,,Overcast,170,2013-05-28 11:53:00
8:53 AM,59.0,57.0,93,30.09,10.0,South,5.8,-,0.00,,Overcast,170,2013-05-28 12:53:00
9:53 AM,62.1,59.0,90,30.09,10.0,SSW,8.1,-,N/A,,Overcast,200,2013-05-28 13:53:00
10:53 AM,64.0,61.0,90,30.10,9.0,Variable,3.5,-,N/A,,Overcast,0,2013-05-28 14:53:00
11:53 AM,69.1,62.1,78,30.09,10.0,SSW,6.9,-,0.00,,Mostly Cloudy,200,2013-05-28 15:53:00
12:53 PM,71.1,63.0,75,30.10,10.0,SSW,12.7,-,0.01,Rain,Light Rain,210,2013-05-28 16:53:00
1:53 PM,73.9,63.0,68,30.06,10.0,SSW,5.8,-,0.00,,Partly Cloudy,200,2013-05-28 17:53:00
2:53 PM,75.0,64.0,69,30.06,10.0,SSW,8.1,19.6,N/A,,Mostly Cloudy,210,2013-05-28 18:53:00
3:53 PM,78.1,62.1,58,30.04,10.0,South,13.8,23.0,N/A,,Clear,190,2013-05-28 19:53:00
4:53 PM,79.0,61.0,54,30.04,10.0,SSW,17.3,25.3,N/A,,Scattered Clouds,200,2013-05-28 20:53:00
5:53 PM,80.1,61.0,52,30.02,10.0,SSW,12.7,-,N/A,,Partly Cloudy,210,2013-05-28 21:53:00
6:53 PM,78.1,59.0,52,30.01,10.0,SSW,16.1,20.7,N/A,,Clear,200,2013-05-28 22:53:00
7:53 PM,75.9,60.1,58,30.02,10.0,South,10.4,-,N/A,,Clear,190,2013-05-28 23:53:00
8:53 PM,73.0,60.1,64,30.01,10.0,South,5.8,-,N/A,,Clear,180,2013-05-29 00:53:00
9:53 PM,73.0,60.1,64,30.02,10.0,South,5.8,-,N/A,,Overcast,180,2013-05-29 01:53:00
10:53 PM,72.0,60.1,66,30.02,10.0,South,9.2,-,N/A,,Clear,180,2013-05-29 02:53:00
11:53 PM,71.1,59.0,66,30.02,10.0,South,8.1,-,N/A,,Clear,190,2013-05-29 03:53:00